Regional Weather Roundup
Issued by NWS Bismarck, ND

Home | Current Version | Previous Version | Text Only | Print | Product List | Glossary On
Versions: 1 2 3 4 5 6 7 8 9 10 11 12 13 14 15 16 17 18 19 20 21 22 23 24 25 26 27 28 29 30 31 32 33 34 35 36 37 38 39 40 41 42 43 44 45 46 47 48 49 50
000
ASUS43 KBIS 240602
RWRBIS

NWR BROADCAST TEXT
NATIONAL WEATHER SERVICE BISMARCK ND
100 AM CDT SUN JUL 24 2016

NOTE: "FAIR" INDICATES FEW OR NO CLOUDS BELOW 12,000 FEET WITH NO
SIGNIFICANT WEATHER AND/OR OBSTRUCTIONS TO VISIBILITY.


CITY           SKY/WX    TMP DP  RH WIND       PRES   REMARKS
WILLISTON      CLEAR     63  53  70 W12       29.98R
MINOT          CLEAR     69  59  70 W13       29.88R
MINOT AFB      CLEAR     62  59  90 W13       29.87R
BISMARCK       CLEAR     67  58  72 W6        29.94R
DICKINSON      CLEAR     56  51  84 NW9       30.01R
GARRISON         N/A     62  58  86 NW10      29.92R
HETTINGER ARPT CLEAR     58  47  66 W5        30.04R
JAMESTOWN      CLEAR     67  59  75 NW12      29.86R
CARRINGTON     FAIR      64  59  82 W14       29.87R
OAKES            N/A    N/A N/A N/A MISG        N/A
STANLEY        FAIR      61  61 100 W7        29.96S
$$

CITY           SKY/WX    TMP DP  RH WIND       PRES   REMARKS
GRAND FORKS    CLEAR     67  63  87 SW7       29.74R
GRAND FORKS AF CLEAR     66  62  85 W9        29.76R
DEVILS LAKE    CLEAR     67  60  78 W15G24    29.81R
FARGO          CLEAR     70  68  93 SW6       29.78S
GRAFTON        FAIR      68  66  94 W7        29.74S
GWINNER        FAIR      64  64 100 SW9       29.84R
LANGDON        FAIR      61  61 100 W7        29.77R
ROLLA            N/A     64  55  72 NW17G30   29.80R
$$

CITY           SKY/WX    TMP DP  RH WIND       PRES   REMARKS
ABERDEEN       CLEAR     64  62  93 W3        29.87R
MOBRIDGE       CLEAR     64  57  78 NW6       29.92R
BUFFALO          N/A     65  46  50 N14       30.00R
RAPID CITY     CLEAR     59  42  53 NW9       30.07R
GLASGOW        PTCLDY    62  51  67 SE6       30.02R
SIDNEY         PTCLDY    58  53  84 CALM      30.01R
WOLF POINT     CLEAR     57  51  80 W5        30.01R
GLENDIVE       CLEAR     59  51  75 NW6       30.06R
MILES CITY     CLEAR     68  49  50 NE9       30.06R
BAKER          CLEAR     61  50  67 NW5       30.07R
$$

CITY           SKY/WX    TMP DP  RH WIND       PRES   REMARKS
BILLINGS       PTCLDY    70  45  40 SW3       30.11R
GREAT FALLS    CLOUDY    61  39  44 W6        30.11R
$$




USA.gov is the U.S. government's official web portal to all federal, state and local government web resources and services.